Location: Trebic
(49.2170°N, 15.8830°E)
Time: 17:55:55
(UTC+02:00)

Transit 4A - Pass Details

Date: 28 July 2019
Orbit: 863 x 981 km, 66.8° (Epoch: 22 August)

Event Time Altitude Azimuth Distance (km) Brightness Sun altitude
Rises 04:17:09 0° 283° (WNW) 3,686 10.7 -9.3°
Reaches altitude 10° 04:20:38 10° 301° (WNW) 2,740 10.2 -8.9°
Maximum altitude 04:24:58 18° 344° (NNW) 2,183 10.2 -8.4°
Drops below altitude 10° 04:29:17 10° 27° (NNE) 2,725 11.6 -7.8°
Sets 04:32:45 0° 45° (NE) 3,658 13.6 -7.4°
